Time,TemperatureF,DewpointF,PressureIn,WindDirection,WindDirectionDegrees,WindSpeedMPH,WindSpeedGustMPH,Humidity,HourlyPrecipIn,Conditions,Clouds,dailyrainin,SoftwareType,DateUTC
2013-06-26 00:01:00,66.7,63.1,28.94,ENE,68,0.0,0.0,88,0.00,,---,0.00,VWS V14.01,2013-06-26 04:01:00,
2013-06-26 00:06:00,66.7,63.1,28.94,ENE,68,0.0,0.0,88,0.00,,---,0.00,VWS V14.01,2013-06-26 04:06:00,
2013-06-26 00:11:00,66.7,63.1,28.94,ENE,68,0.0,0.0,88,0.00,,---,0.00,VWS V14.01,2013-06-26 04:11:00,
2013-06-26 00:16:00,66.7,63.1,28.94,ENE,68,0.0,0.0,88,0.00,,---,0.00,VWS V14.01,2013-06-26 04:16:00,
2013-06-26 00:21:00,66.6,62.9,28.94,ENE,68,0.0,0.0,88,0.00,,---,0.00,VWS V14.01,2013-06-26 04:21:00,
2013-06-26 00:26:00,66.6,62.9,28.94,ENE,68,0.0,0.0,88,0.00,,---,0.00,VWS V14.01,2013-06-26 04:26:00,
2013-06-26 00:31:00,66.6,62.9,28.94,ENE,68,0.0,0.0,88,0.00,,---,0.00,VWS V14.01,2013-06-26 04:31:00,
2013-06-26 00:36:00,66.6,62.9,28.94,ENE,68,0.0,0.0,88,0.00,,---,0.00,VWS V14.01,2013-06-26 04:36:00,
2013-06-26 00:41:00,66.6,62.9,28.94,ENE,68,0.0,0.0,88,0.00,,---,0.00,VWS V14.01,2013-06-26 04:41:00,
2013-06-26 00:46:00,66.6,62.9,28.94,ENE,68,0.0,0.0,88,0.00,,---,0.00,VWS V14.01,2013-06-26 04:46:00,
2013-06-26 00:51:00,66.4,62.7,28.94,ENE,68,0.0,0.0,88,0.00,,---,0.00,VWS V14.01,2013-06-26 04:51:00,
2013-06-26 00:56:00,66.4,62.7,28.94,ENE,68,0.0,0.0,88,0.00,,---,0.00,VWS V14.01,2013-06-26 04:56:00,
2013-06-26 01:01:00,66.4,62.7,28.97,ENE,68,0.0,0.0,88,0.00,,---,0.00,VWS V14.01,2013-06-26 05:01:00,
2013-06-26 01:06:00,66.4,62.7,28.97,ENE,68,0.0,0.0,88,0.00,,---,0.00,VWS V14.01,2013-06-26 05:06:00,
2013-06-26 01:11:00,66.4,62.7,28.97,ENE,68,0.0,0.0,88,0.00,,---,0.00,VWS V14.01,2013-06-26 05:11:00,
2013-06-26 01:16:00,66.2,62.5,28.97,ENE,68,0.0,0.0,88,0.00,,---,0.00,VWS V14.01,2013-06-26 05:16:00,
2013-06-26 01:21:00,66.2,62.5,28.97,ENE,68,0.0,0.0,88,0.00,,---,0.00,VWS V14.01,2013-06-26 05:21:00,
2013-06-26 01:26:00,66.0,62.4,28.97,ENE,68,0.0,0.0,88,0.00,,---,0.00,VWS V14.01,2013-06-26 05:26:00,
2013-06-26 01:31:00,66.2,62.5,28.94,ENE,68,0.0,0.0,88,0.00,,---,0.00,VWS V14.01,2013-06-26 05:31:00,
2013-06-26 01:36:00,66.2,62.5,28.94,ENE,68,0.0,0.0,88,0.00,,---,0.00,VWS V14.01,2013-06-26 05:36:00,
2013-06-26 01:41:00,66.2,62.5,28.94,ENE,68,0.0,0.0,88,0.00,,---,0.00,VWS V14.01,2013-06-26 05:41:00,
2013-06-26 01:46:00,66.0,62.7,28.97,ENE,68,0.0,0.0,89,0.00,,---,0.00,VWS V14.01,2013-06-26 05:46:00,
2013-06-26 01:51:00,66.0,62.7,28.97,ENE,68,0.0,0.0,89,0.00,,---,0.00,VWS V14.01,2013-06-26 05:51:00,
2013-06-26 01:56:00,66.0,62.7,28.97,ENE,68,0.0,0.0,89,0.00,,---,0.00,VWS V14.01,2013-06-26 05:56:00,
2013-06-26 02:01:00,66.0,62.7,28.97,ENE,68,0.0,0.0,89,0.00,,---,0.00,VWS V14.01,2013-06-26 06:01:00,
2013-06-26 02:06:00,66.0,62.7,28.97,ENE,68,0.0,0.0,89,0.00,,---,0.00,VWS V14.01,2013-06-26 06:06:00,
2013-06-26 02:11:00,66.2,62.9,28.97,ENE,68,0.0,0.0,89,0.00,,---,0.00,VWS V14.01,2013-06-26 06:11:00,
2013-06-26 02:16:00,66.0,62.7,28.97,ENE,68,0.0,0.0,89,0.00,,---,0.00,VWS V14.01,2013-06-26 06:16:00,
2013-06-26 02:21:00,66.0,62.7,28.97,ENE,68,0.0,0.0,89,0.00,,---,0.00,VWS V14.01,2013-06-26 06:21:00,
2013-06-26 02:26:00,66.0,62.7,28.97,ENE,68,0.0,0.0,89,0.00,,---,0.00,VWS V14.01,2013-06-26 06:26:00,
2013-06-26 02:31:00,66.0,62.7,28.94,ENE,68,0.0,0.0,89,0.00,,---,0.00,VWS V14.01,2013-06-26 06:31:00,
2013-06-26 02:35:00,65.8,62.5,28.94,ENE,68,0.0,0.0,89,0.00,,---,0.00,VWS V14.01,2013-06-26 06:35:00,
2013-06-26 02:40:00,65.8,62.5,28.94,ENE,68,0.0,0.0,89,0.00,,---,0.00,VWS V14.01,2013-06-26 06:40:00,
2013-06-26 02:45:00,65.8,62.5,28.97,ENE,68,0.0,0.0,89,0.00,,---,0.00,VWS V14.01,2013-06-26 06:45:00,
2013-06-26 02:50:00,65.8,62.5,28.97,ENE,68,0.0,0.0,89,0.00,,---,0.00,VWS V14.01,2013-06-26 06:50:00,
2013-06-26 02:55:00,65.7,62.3,28.97,ENE,68,0.0,0.0,89,0.00,,---,0.00,VWS V14.01,2013-06-26 06:55:00,
2013-06-26 03:00:00,65.7,62.3,29.00,ENE,68,0.0,0.0,89,0.00,,---,0.00,VWS V14.01,2013-06-26 07:00:00,
2013-06-26 03:05:00,65.7,62.3,29.00,ENE,68,0.0,0.0,89,0.00,,---,0.00,VWS V14.01,2013-06-26 07:05:00,
2013-06-26 03:10:00,65.8,62.5,29.00,ENE,68,0.0,0.0,89,0.00,,---,0.00,VWS V14.01,2013-06-26 07:10:00,
2013-06-26 03:15:00,65.7,62.3,29.00,ENE,68,0.0,0.0,89,0.00,,---,0.00,VWS V14.01,2013-06-26 07:15:00,
2013-06-26 03:20:00,65.7,62.3,29.00,ENE,68,0.0,0.0,89,0.00,,---,0.00,VWS V14.01,2013-06-26 07:20:00,
2013-06-26 03:25:00,65.7,62.3,29.00,ENE,68,0.0,0.0,89,0.00,,---,0.00,VWS V14.01,2013-06-26 07:25:00,
2013-06-26 03:30:00,65.7,62.3,28.94,ENE,68,0.0,0.0,89,0.00,,---,0.00,VWS V14.01,2013-06-26 07:30:00,
2013-06-26 03:35:00,65.7,62.3,28.94,ENE,68,0.0,0.0,89,0.00,,---,0.00,VWS V14.01,2013-06-26 07:35:00,
2013-06-26 03:40:00,65.7,62.3,28.94,ENE,68,0.0,0.0,89,0.00,,---,0.00,VWS V14.01,2013-06-26 07:40:00,
2013-06-26 03:45:00,65.7,62.3,29.03,ENE,68,0.0,0.0,89,0.00,,---,0.00,VWS V14.01,2013-06-26 07:45:00,
2013-06-26 03:50:00,65.7,62.3,29.03,ENE,68,0.0,0.0,89,0.00,,---,0.00,VWS V14.01,2013-06-26 07:50:00,
2013-06-26 03:55:00,65.7,62.3,29.03,ENE,68,0.0,0.0,89,0.00,,---,0.00,VWS V14.01,2013-06-26 07:55:00,
2013-06-26 04:00:00,65.7,62.3,29.06,ENE,68,0.0,0.0,89,0.00,,---,0.00,VWS V14.01,2013-06-26 08:00:00,
2013-06-26 04:05:00,65.5,62.2,29.06,ENE,68,0.0,0.0,89,0.00,,---,0.00,VWS V14.01,2013-06-26 08:05:00,
2013-06-26 04:10:00,65.5,62.2,29.06,ENE,68,0.0,0.0,89,0.00,,---,0.00,VWS V14.01,2013-06-26 08:10:00,
2013-06-26 04:15:00,65.5,62.2,29.09,ENE,68,0.0,0.0,89,0.00,,---,0.00,VWS V14.01,2013-06-26 08:15:00,
2013-06-26 04:20:00,65.5,62.2,29.09,ENE,68,0.0,0.0,89,0.00,,---,0.00,VWS V14.01,2013-06-26 08:20:00,
2013-06-26 04:25:00,65.5,62.2,29.09,ENE,68,0.0,0.0,89,0.00,,---,0.00,VWS V14.01,2013-06-26 08:25:00,
2013-06-26 04:30:00,65.5,62.2,29.09,ENE,68,0.0,0.0,89,0.00,,---,0.00,VWS V14.01,2013-06-26 08:30:00,
2013-06-26 04:35:00,65.5,62.5,29.09,ENE,68,0.0,0.0,90,0.00,,---,0.00,VWS V14.01,2013-06-26 08:35:00,
2013-06-26 04:40:00,65.3,62.0,29.09,ENE,68,0.0,0.0,89,0.00,,---,0.00,VWS V14.01,2013-06-26 08:40:00,
2013-06-26 04:45:00,65.5,62.5,29.09,ENE,68,0.0,0.0,90,0.00,,---,0.00,VWS V14.01,2013-06-26 08:45:00,
2013-06-26 04:50:00,65.3,62.3,29.09,ENE,68,0.0,0.0,90,0.00,,---,0.00,VWS V14.01,2013-06-26 08:50:00,
2013-06-26 04:55:00,65.3,62.3,29.09,ENE,68,0.0,0.0,90,0.00,,---,0.00,VWS V14.01,2013-06-26 08:55:00,
2013-06-26 05:00:00,65.3,62.3,29.12,ENE,68,0.0,0.0,90,0.00,,---,0.00,VWS V14.01,2013-06-26 09:00:00,
2013-06-26 05:05:00,64.9,61.9,29.12,ENE,68,0.0,0.0,90,0.00,,---,0.00,VWS V14.01,2013-06-26 09:05:00,
2013-06-26 05:10:00,64.8,61.5,29.12,ENE,68,0.0,0.0,89,0.00,,---,0.00,VWS V14.01,2013-06-26 09:10:00,
2013-06-26 05:15:00,64.8,61.5,29.14,ENE,68,0.0,0.0,89,0.00,,---,0.00,VWS V14.01,2013-06-26 09:15:00,
2013-06-26 05:20:00,64.8,61.8,29.14,ENE,68,0.0,0.0,90,0.00,,---,0.00,VWS V14.01,2013-06-26 09:20:00,
2013-06-26 05:25:00,64.9,61.9,29.14,ENE,68,0.0,0.0,90,0.00,,---,0.00,VWS V14.01,2013-06-26 09:25:00,
2013-06-26 05:30:00,64.8,61.5,29.14,ENE,68,0.0,0.0,89,0.00,,---,0.00,VWS V14.01,2013-06-26 09:30:00,
2013-06-26 05:35:00,64.8,61.5,29.14,ENE,68,0.0,0.0,89,0.00,,---,0.00,VWS V14.01,2013-06-26 09:35:00,
2013-06-26 05:40:00,64.8,61.5,29.14,ENE,68,0.0,0.0,89,0.00,,---,0.00,VWS V14.01,2013-06-26 09:40:00,
2013-06-26 05:45:00,64.9,61.9,29.14,ENE,68,0.0,0.0,90,0.00,,---,0.00,VWS V14.01,2013-06-26 09:45:00,
2013-06-26 05:50:00,65.1,62.1,29.14,ENE,68,0.0,0.0,90,0.00,,---,0.00,VWS V14.01,2013-06-26 09:50:00,
2013-06-26 05:55:00,65.1,62.1,29.14,ENE,68,0.0,0.0,90,0.00,,---,0.00,VWS V14.01,2013-06-26 09:55:00,
2013-06-26 06:00:00,65.1,62.1,29.17,ENE,68,0.0,0.0,90,0.00,,---,0.00,VWS V14.01,2013-06-26 10:00:00,
2013-06-26 06:05:00,65.1,62.1,29.17,ENE,68,0.0,0.0,90,0.00,,---,0.00,VWS V14.01,2013-06-26 10:05:00,
2013-06-26 06:10:00,65.3,62.3,29.17,ENE,68,0.0,0.0,90,0.00,,---,0.00,VWS V14.01,2013-06-26 10:10:00,
2013-06-26 06:15:00,65.1,62.1,29.17,ENE,68,0.0,0.0,90,0.00,,---,0.00,VWS V14.01,2013-06-26 10:15:00,
2013-06-26 06:20:00,65.1,62.1,29.17,ENE,68,0.0,0.0,90,0.00,,---,0.00,VWS V14.01,2013-06-26 10:20:00,
2013-06-26 06:25:00,65.3,62.3,29.17,ENE,68,0.0,0.0,90,0.00,,---,0.00,VWS V14.01,2013-06-26 10:25:00,
2013-06-26 06:30:00,65.5,62.5,29.17,ENE,68,0.0,0.0,90,0.00,,---,0.00,VWS V14.01,2013-06-26 10:30:00,
2013-06-26 06:35:00,65.5,62.5,29.17,ENE,68,0.0,0.0,90,0.00,,---,0.00,VWS V14.01,2013-06-26 10:35:00,
2013-06-26 06:40:00,65.5,62.5,29.17,ENE,68,0.0,0.0,90,0.00,,---,0.00,VWS V14.01,2013-06-26 10:40:00,
2013-06-26 06:45:00,65.5,62.5,29.17,ENE,68,0.0,0.0,90,0.00,,---,0.00,VWS V14.01,2013-06-26 10:45:00,
2013-06-26 06:50:00,65.7,62.7,29.17,ENE,68,0.0,0.0,90,0.00,,---,0.00,VWS V14.01,2013-06-26 10:50:00,
2013-06-26 06:55:00,65.7,62.7,29.17,ENE,68,0.0,0.0,90,0.00,,---,0.00,VWS V14.01,2013-06-26 10:55:00,
2013-06-26 07:00:00,66.0,63.0,29.20,ENE,68,0.0,0.0,90,0.00,,---,0.00,VWS V14.01,2013-06-26 11:00:00,
2013-06-26 07:05:00,65.8,62.8,29.20,ENE,68,0.0,0.0,90,0.00,,---,0.00,VWS V14.01,2013-06-26 11:05:00,
2013-06-26 07:10:00,66.0,63.0,29.20,ENE,68,0.0,0.0,90,0.00,,---,0.00,VWS V14.01,2013-06-26 11:10:00,
2013-06-26 07:15:00,65.8,62.8,29.23,ENE,68,0.0,0.0,90,0.00,,---,0.00,VWS V14.01,2013-06-26 11:15:00,
2013-06-26 07:20:00,66.0,63.0,29.23,ENE,68,0.0,0.0,90,0.00,,---,0.00,VWS V14.01,2013-06-26 11:20:00,
2013-06-26 07:25:00,66.0,63.0,29.23,ENE,68,0.0,0.0,90,0.00,,---,0.00,VWS V14.01,2013-06-26 11:25:00,
2013-06-26 07:30:00,66.2,62.9,29.23,ENE,68,0.0,0.0,89,0.00,,---,0.00,VWS V14.01,2013-06-26 11:30:00,
2013-06-26 07:35:00,66.4,63.0,29.23,ENE,68,0.0,0.0,89,0.00,,---,0.00,VWS V14.01,2013-06-26 11:35:00,
2013-06-26 07:40:00,66.7,63.4,29.23,ENE,68,0.0,0.0,89,0.00,,---,0.00,VWS V14.01,2013-06-26 11:40:00,
2013-06-26 07:45:00,66.7,63.4,29.29,ENE,68,0.0,0.0,89,0.00,,---,0.00,VWS V14.01,2013-06-26 11:45:00,
2013-06-26 07:50:00,67.1,63.8,29.29,ENE,68,0.0,0.0,89,0.00,,---,0.00,VWS V14.01,2013-06-26 11:50:00,
2013-06-26 07:55:00,67.5,64.1,29.29,ENE,68,0.0,0.0,89,0.00,,---,0.00,VWS V14.01,2013-06-26 11:55:00,
2013-06-26 08:00:00,67.3,63.9,29.32,ENE,68,0.0,0.0,89,0.00,,---,0.00,VWS V14.01,2013-06-26 12:00:00,
2013-06-26 08:05:00,67.5,64.1,29.32,ENE,68,0.0,0.0,89,0.00,,---,0.00,VWS V14.01,2013-06-26 12:05:00,
2013-06-26 08:10:00,67.5,64.1,29.32,ENE,68,0.0,0.0,89,0.00,,---,0.00,VWS V14.01,2013-06-26 12:10:00,
2013-06-26 08:15:00,67.5,64.1,29.32,ENE,68,0.0,0.0,89,0.00,,---,0.00,VWS V14.01,2013-06-26 12:15:00,
2013-06-26 08:20:00,67.5,64.1,29.32,ENE,68,0.0,0.0,89,0.00,,---,0.00,VWS V14.01,2013-06-26 12:20:00,
2013-06-26 08:25:00,68.2,64.8,29.32,ENE,68,0.0,0.0,89,0.00,,---,0.00,VWS V14.01,2013-06-26 12:25:00,
2013-06-26 08:30:00,68.2,64.8,29.32,ENE,68,0.0,0.0,89,0.00,,---,0.00,VWS V14.01,2013-06-26 12:30:00,
2013-06-26 08:35:00,68.2,64.8,29.32,ENE,68,0.0,0.0,89,0.00,,---,0.00,VWS V14.01,2013-06-26 12:35:00,
2013-06-26 08:40:00,68.2,64.8,29.32,ENE,68,0.0,0.0,89,0.00,,---,0.00,VWS V14.01,2013-06-26 12:40:00,
2013-06-26 08:45:00,68.5,64.8,29.35,ENE,68,0.0,0.0,88,0.00,,---,0.00,VWS V14.01,2013-06-26 12:45:00,
2013-06-26 08:50:00,68.7,65.0,29.35,ENE,68,0.0,0.0,88,0.00,,---,0.00,VWS V14.01,2013-06-26 12:50:00,
2013-06-26 08:55:00,68.9,65.2,29.35,ENE,68,0.0,0.0,88,0.00,,---,0.00,VWS V14.01,2013-06-26 12:55:00,
2013-06-26 09:00:00,69.1,65.4,29.32,ENE,68,0.0,0.0,88,0.00,,---,0.00,VWS V14.01,2013-06-26 13:00:00,
2013-06-26 09:05:00,69.3,65.6,29.32,ENE,68,0.0,0.0,88,0.00,,---,0.00,VWS V14.01,2013-06-26 13:05:00,
2013-06-26 09:10:00,69.1,65.1,29.32,ENE,68,0.0,0.0,87,0.00,,---,0.00,VWS V14.01,2013-06-26 13:10:00,
2013-06-26 09:15:00,69.6,65.9,29.35,ENE,68,0.0,0.0,88,0.00,,---,0.00,VWS V14.01,2013-06-26 13:15:00,
2013-06-26 09:20:00,69.6,65.9,29.35,ENE,68,0.0,0.0,88,0.00,,---,0.00,VWS V14.01,2013-06-26 13:20:00,
2013-06-26 09:25:00,69.6,65.9,29.35,ENE,68,0.0,0.0,88,0.00,,---,0.00,VWS V14.01,2013-06-26 13:25:00,
2013-06-26 09:29:00,69.3,65.2,29.14,ENE,68,0.0,0.0,87,0.00,,---,0.00,VWS V14.01,2013-06-26 13:29:00,
2013-06-26 09:34:00,69.3,65.2,29.14,ENE,68,0.0,0.0,87,0.00,,---,0.00,VWS V14.01,2013-06-26 13:34:00,
2013-06-26 09:39:00,69.1,65.1,29.14,ENE,68,0.0,0.0,87,0.00,,---,0.00,VWS V14.01,2013-06-26 13:39:00,
2013-06-26 09:44:00,69.4,65.4,29.35,ENE,68,0.0,0.0,87,0.00,,---,0.00,VWS V14.01,2013-06-26 13:44:00,
2013-06-26 09:49:00,69.4,65.4,29.35,ENE,68,0.0,0.0,87,0.00,,---,0.00,VWS V14.01,2013-06-26 13:49:00,
2013-06-26 09:54:00,69.4,65.4,29.35,ENE,68,0.0,0.0,87,0.00,,---,0.00,VWS V14.01,2013-06-26 13:54:00,
2013-06-26 09:59:00,69.4,65.4,29.35,ENE,68,0.0,0.0,87,0.00,,---,0.00,VWS V14.01,2013-06-26 13:59:00,
2013-06-26 10:04:00,69.4,65.4,29.35,ENE,68,0.0,0.0,87,0.00,,---,0.00,VWS V14.01,2013-06-26 14:04:00,
2013-06-26 10:09:00,69.3,65.2,29.35,ENE,68,0.0,0.0,87,0.00,,---,0.00,VWS V14.01,2013-06-26 14:09:00,
2013-06-26 10:14:00,69.3,65.2,29.35,ENE,68,0.0,0.0,87,0.00,,---,0.00,VWS V14.01,2013-06-26 14:14:00,
2013-06-26 10:19:00,69.3,65.2,29.35,ENE,68,0.0,0.0,87,0.00,,---,0.00,VWS V14.01,2013-06-26 14:19:00,
2013-06-26 10:24:00,69.1,65.1,29.35,ENE,68,0.0,0.0,87,0.00,,---,0.00,VWS V14.01,2013-06-26 14:24:00,
2013-06-26 10:29:00,69.1,65.4,29.38,ENE,68,0.0,0.0,88,0.00,,---,0.00,VWS V14.01,2013-06-26 14:29:00,
2013-06-26 10:34:00,68.9,65.2,29.38,ENE,68,0.0,0.0,88,0.00,,---,0.00,VWS V14.01,2013-06-26 14:34:00,
2013-06-26 10:39:00,69.1,65.4,29.38,ENE,68,0.0,0.0,88,0.00,,---,0.00,VWS V14.01,2013-06-26 14:39:00,
2013-06-26 10:44:00,69.1,65.4,29.38,ENE,68,0.0,0.0,88,0.00,,---,0.00,VWS V14.01,2013-06-26 14:44:00,
2013-06-26 10:49:00,69.1,65.4,29.38,ENE,68,0.0,0.0,88,0.00,,---,0.00,VWS V14.01,2013-06-26 14:49:00,
2013-06-26 10:54:00,69.1,65.4,29.38,ENE,68,0.0,0.0,88,0.00,,---,0.00,VWS V14.01,2013-06-26 14:54:00,
2013-06-26 10:59:00,69.3,65.6,29.41,NNE,22,0.0,0.0,88,0.00,,---,0.00,VWS V14.01,2013-06-26 14:59:00,
2013-06-26 11:04:00,69.3,65.6,29.41,NNE,22,0.0,0.0,88,0.00,,---,0.00,VWS V14.01,2013-06-26 15:04:00,
2013-06-26 11:09:00,69.4,66.1,29.41,NNE,22,0.0,0.0,89,0.04,,---,0.04,VWS V14.01,2013-06-26 15:09:00,
2013-06-26 11:14:00,69.8,66.1,29.41,NNE,22,0.0,0.0,88,0.04,,---,0.04,VWS V14.01,2013-06-26 15:14:00,
2013-06-26 11:19:00,69.8,66.1,29.41,NNE,22,0.0,0.0,88,0.04,,---,0.04,VWS V14.01,2013-06-26 15:19:00,
2013-06-26 11:24:00,69.8,66.1,29.41,NNE,22,0.0,0.0,88,0.04,,---,0.04,VWS V14.01,2013-06-26 15:24:00,
2013-06-26 11:29:00,69.8,66.4,29.44,NNE,22,0.0,0.0,89,0.08,,---,0.08,VWS V14.01,2013-06-26 15:29:00,
2013-06-26 11:34:00,69.6,66.2,29.44,NNE,22,0.0,0.0,89,0.08,,---,0.08,VWS V14.01,2013-06-26 15:34:00,
2013-06-26 11:39:00,69.6,66.2,29.44,NNE,22,0.0,0.0,89,0.08,,---,0.08,VWS V14.01,2013-06-26 15:39:00,
2013-06-26 11:44:00,69.4,66.1,29.41,NNE,22,0.0,0.0,89,0.08,,---,0.08,VWS V14.01,2013-06-26 15:44:00,
2013-06-26 11:49:00,69.3,65.9,29.41,ENE,68,1.3,1.3,89,0.08,,---,0.08,VWS V14.01,2013-06-26 15:49:00,
2013-06-26 11:54:00,69.1,65.7,29.41,ESE,112,0.0,0.0,89,0.12,,---,0.12,VWS V14.01,2013-06-26 15:54:00,
2013-06-26 11:59:00,69.1,65.7,29.41,ENE,68,0.0,0.0,89,0.12,,---,0.12,VWS V14.01,2013-06-26 15:59:00,
2013-06-26 12:04:00,68.9,65.5,29.41,ENE,68,0.0,0.0,89,0.12,,---,0.12,VWS V14.01,2013-06-26 16:04:00,
2013-06-26 12:09:00,68.9,65.5,29.41,ENE,68,0.0,0.0,89,0.08,,---,0.12,VWS V14.01,2013-06-26 16:09:00,
2013-06-26 12:14:00,69.1,65.7,29.44,ENE,68,0.0,0.0,89,0.08,,---,0.12,VWS V14.01,2013-06-26 16:14:00,
2013-06-26 12:19:00,69.3,65.9,29.44,ENE,68,0.0,0.0,89,0.08,,---,0.12,VWS V14.01,2013-06-26 16:19:00,
2013-06-26 12:24:00,69.3,65.9,29.44,ENE,68,0.0,0.0,89,0.08,,---,0.12,VWS V14.01,2013-06-26 16:24:00,
2013-06-26 12:29:00,69.3,65.9,29.47,ENE,68,0.0,0.0,89,0.04,,---,0.12,VWS V14.01,2013-06-26 16:29:00,
2013-06-26 12:34:00,69.3,65.9,29.47,ENE,68,0.0,0.0,89,0.04,,---,0.12,VWS V14.01,2013-06-26 16:34:00,
2013-06-26 12:39:00,69.4,66.1,29.47,ENE,68,0.0,0.0,89,0.04,,---,0.12,VWS V14.01,2013-06-26 16:39:00,
2013-06-26 12:44:00,69.8,66.4,29.50,ENE,68,0.0,0.0,89,0.04,,---,0.12,VWS V14.01,2013-06-26 16:44:00,
2013-06-26 12:49:00,69.4,66.1,29.50,ENE,68,0.0,0.0,89,0.04,,---,0.12,VWS V14.01,2013-06-26 16:49:00,
2013-06-26 12:54:00,69.6,66.2,29.50,ENE,68,0.0,0.0,89,0.00,,---,0.12,VWS V14.01,2013-06-26 16:54:00,
2013-06-26 12:59:00,69.6,66.2,29.50,ENE,68,0.0,0.0,89,0.00,,---,0.12,VWS V14.01,2013-06-26 16:59:00,
2013-06-26 13:04:00,69.8,66.4,29.50,SSE,158,0.0,0.0,89,0.00,,---,0.12,VWS V14.01,2013-06-26 17:04:00,
2013-06-26 13:09:00,69.4,66.1,29.50,SE,135,0.0,0.0,89,0.04,,---,0.16,VWS V14.01,2013-06-26 17:09:00,
2013-06-26 13:14:00,69.4,66.1,29.50,WNW,292,3.1,3.1,89,0.04,,---,0.16,VWS V14.01,2013-06-26 17:14:00,
2013-06-26 13:19:00,68.9,65.2,29.50,WNW,292,0.9,0.9,88,0.04,,---,0.16,VWS V14.01,2013-06-26 17:19:00,
2013-06-26 13:24:00,68.9,65.2,29.50,NNW,338,0.0,0.0,88,0.04,,---,0.16,VWS V14.01,2013-06-26 17:24:00,
2013-06-26 13:29:00,68.9,65.2,29.50,SE,135,1.6,1.6,88,0.09,,---,0.21,VWS V14.01,2013-06-26 17:29:00,
2013-06-26 13:34:00,68.5,64.8,29.50,SSW,202,0.0,0.0,88,0.09,,---,0.21,VWS V14.01,2013-06-26 17:34:00,
2013-06-26 13:39:00,68.4,64.7,29.50,West,270,0.0,0.0,88,0.09,,---,0.21,VWS V14.01,2013-06-26 17:39:00,
2013-06-26 13:44:00,68.5,64.8,29.47,West,270,0.0,0.0,88,0.09,,---,0.21,VWS V14.01,2013-06-26 17:44:00,
2013-06-26 13:49:00,68.5,64.8,29.47,West,270,0.0,0.0,88,0.09,,---,0.21,VWS V14.01,2013-06-26 17:49:00,
2013-06-26 13:54:00,68.4,64.7,29.47,North,0,0.0,0.0,88,0.09,,---,0.21,VWS V14.01,2013-06-26 17:54:00,
2013-06-26 13:59:00,68.2,64.5,29.47,NW,315,0.0,0.0,88,0.09,,---,0.21,VWS V14.01,2013-06-26 17:59:00,
2013-06-26 14:04:00,68.0,64.3,29.47,NNW,338,0.0,0.0,88,0.13,,---,0.25,VWS V14.01,2013-06-26 18:04:00,
2013-06-26 14:09:00,68.0,64.3,29.47,NW,315,0.0,0.0,88,0.09,,---,0.25,VWS V14.01,2013-06-26 18:09:00,
2013-06-26 14:14:00,68.0,64.3,29.47,NNE,22,0.0,0.0,88,0.09,,---,0.25,VWS V14.01,2013-06-26 18:14:00,
2013-06-26 14:19:00,68.2,64.5,29.47,NNE,22,0.0,0.0,88,0.09,,---,0.25,VWS V14.01,2013-06-26 18:19:00,
2013-06-26 14:24:00,68.4,64.7,29.47,NNE,22,0.0,0.0,88,0.09,,---,0.25,VWS V14.01,2013-06-26 18:24:00,
2013-06-26 14:29:00,68.5,64.8,29.47,NNE,22,0.0,0.0,88,0.04,,---,0.25,VWS V14.01,2013-06-26 18:29:00,
2013-06-26 14:34:00,68.5,64.8,29.47,NNE,22,0.0,0.0,88,0.04,,---,0.25,VWS V14.01,2013-06-26 18:34:00,
2013-06-26 14:39:00,68.9,65.5,29.47,NNE,22,0.0,0.0,89,0.04,,---,0.25,VWS V14.01,2013-06-26 18:39:00,
2013-06-26 14:44:00,69.1,65.7,29.47,NNE,22,0.0,0.0,89,0.04,,---,0.25,VWS V14.01,2013-06-26 18:44:00,
2013-06-26 14:49:00,69.8,66.4,29.47,NNE,22,0.0,0.0,89,0.04,,---,0.25,VWS V14.01,2013-06-26 18:49:00,
2013-06-26 14:54:00,70.2,66.8,29.47,NNE,22,0.0,0.0,89,0.04,,---,0.25,VWS V14.01,2013-06-26 18:54:00,
2013-06-26 14:59:00,70.0,66.3,29.44,NNE,22,0.0,0.0,88,0.04,,---,0.25,VWS V14.01,2013-06-26 18:59:00,
2013-06-26 15:04:00,70.3,66.6,29.44,NNE,22,0.0,0.0,88,0.00,,---,0.25,VWS V14.01,2013-06-26 19:04:00,
2013-06-26 15:09:00,70.5,66.8,29.44,NNE,22,0.0,0.0,88,0.00,,---,0.25,VWS V14.01,2013-06-26 19:09:00,
2013-06-26 15:14:00,70.9,66.5,29.44,NNE,22,0.0,0.0,86,0.00,,---,0.25,VWS V14.01,2013-06-26 19:14:00,
2013-06-26 15:19:00,71.1,66.3,29.44,NNE,22,0.0,0.0,85,0.00,,---,0.25,VWS V14.01,2013-06-26 19:19:00,
2013-06-26 15:24:00,71.8,67.0,29.44,NNE,22,0.0,0.0,85,0.00,,---,0.25,VWS V14.01,2013-06-26 19:24:00,
2013-06-26 15:29:00,71.6,66.2,29.44,NNE,22,0.0,0.0,83,0.00,,---,0.25,VWS V14.01,2013-06-26 19:29:00,
2013-06-26 15:34:00,73.9,68.5,29.14,NNE,22,0.0,0.0,83,0.00,,---,0.25,VWS V14.01,2013-06-26 19:34:00,
2013-06-26 15:39:00,73.9,68.1,29.14,NNE,22,0.0,0.0,82,0.00,,---,0.25,VWS V14.01,2013-06-26 19:39:00,
2013-06-26 15:44:00,73.4,67.9,29.14,NNE,22,0.0,0.0,83,0.00,,---,0.25,VWS V14.01,2013-06-26 19:44:00,
2013-06-26 15:49:00,74.5,69.0,29.44,NNE,22,0.0,0.0,83,0.00,,---,0.25,VWS V14.01,2013-06-26 19:49:00,
2013-06-26 15:54:00,75.9,70.0,29.44,NNE,22,0.0,0.0,82,0.00,,---,0.25,VWS V14.01,2013-06-26 19:54:00,
2013-06-26 15:59:00,75.9,69.3,29.44,NNE,22,0.0,0.0,80,0.00,,---,0.25,VWS V14.01,2013-06-26 19:59:00,
2013-06-26 16:04:00,74.7,68.1,29.41,NNE,22,0.0,0.0,80,0.00,,---,0.25,VWS V14.01,2013-06-26 20:04:00,
2013-06-26 16:09:00,74.1,67.6,29.41,NNE,22,0.0,0.0,80,0.00,,---,0.25,VWS V14.01,2013-06-26 20:09:00,
2013-06-26 16:14:00,75.6,68.6,29.41,East,90,1.6,1.6,79,0.00,,---,0.25,VWS V14.01,2013-06-26 20:14:00,
2013-06-26 16:19:00,75.7,68.8,29.41,East,90,0.0,0.0,79,0.00,,---,0.25,VWS V14.01,2013-06-26 20:19:00,
2013-06-26 16:24:00,75.9,68.9,29.41,East,90,0.0,0.0,79,0.00,,---,0.25,VWS V14.01,2013-06-26 20:24:00,
2013-06-26 16:29:00,77.4,70.3,29.41,West,270,0.0,2.5,79,0.00,,---,0.25,VWS V14.01,2013-06-26 20:29:00,
2013-06-26 16:34:00,76.1,68.8,29.44,West,270,0.0,0.0,78,0.00,,---,0.25,VWS V14.01,2013-06-26 20:34:00,
2013-06-26 16:39:00,76.3,69.3,29.44,WNW,292,0.0,0.0,79,0.00,,---,0.25,VWS V14.01,2013-06-26 20:39:00,
2013-06-26 16:44:00,76.3,69.3,29.44,ENE,68,2.7,2.7,79,0.00,,---,0.25,VWS V14.01,2013-06-26 20:44:00,
2013-06-26 16:49:00,77.4,69.6,29.41,SSW,202,0.0,2.2,77,0.00,,---,0.25,VWS V14.01,2013-06-26 20:49:00,
2013-06-26 16:53:00,77.0,68.9,29.41,WSW,248,0.0,0.0,76,0.00,,---,0.25,VWS V14.01,2013-06-26 20:53:00,
2013-06-26 16:58:00,76.5,68.7,29.41,WNW,292,1.6,1.6,77,0.00,,---,0.25,VWS V14.01,2013-06-26 20:58:00,
2013-06-26 17:03:00,75.6,67.8,29.38,WNW,292,0.0,0.0,77,0.00,,---,0.25,VWS V14.01,2013-06-26 21:03:00,
2013-06-26 17:08:00,75.2,67.5,29.38,WNW,292,0.0,0.0,77,0.00,,---,0.25,VWS V14.01,2013-06-26 21:08:00,
2013-06-26 17:13:00,75.0,67.3,29.38,WNW,292,0.9,0.9,77,0.00,,---,0.25,VWS V14.01,2013-06-26 21:13:00,
2013-06-26 17:18:00,74.5,66.8,29.38,NNW,338,0.0,0.0,77,0.00,,---,0.25,VWS V14.01,2013-06-26 21:18:00,
2013-06-26 17:23:00,73.8,66.5,29.38,NNW,338,0.0,0.0,78,0.00,,---,0.25,VWS V14.01,2013-06-26 21:23:00,
2013-06-26 17:28:00,73.6,65.9,29.38,NNW,338,0.0,0.0,77,0.00,,---,0.25,VWS V14.01,2013-06-26 21:28:00,
2013-06-26 17:33:00,73.2,66.0,29.38,NNW,338,0.0,0.0,78,0.00,,---,0.25,VWS V14.01,2013-06-26 21:33:00,
2013-06-26 17:38:00,73.0,66.2,29.38,NNW,338,0.0,0.0,79,0.00,,---,0.25,VWS V14.01,2013-06-26 21:38:00,
2013-06-26 17:43:00,72.5,65.3,29.38,NNW,338,1.6,1.6,78,0.00,,---,0.25,VWS V14.01,2013-06-26 21:43:00,
2013-06-26 17:48:00,72.1,65.3,29.38,NNW,338,0.0,0.0,79,0.00,,---,0.25,VWS V14.01,2013-06-26 21:48:00,
2013-06-26 17:53:00,72.0,65.1,29.38,NNW,338,0.0,1.1,79,0.00,,---,0.25,VWS V14.01,2013-06-26 21:53:00,
2013-06-26 17:58:00,71.8,65.3,29.38,NNW,338,0.0,0.0,80,0.00,,---,0.25,VWS V14.01,2013-06-26 21:58:00,
2013-06-26 18:03:00,71.2,65.1,29.38,NNW,338,2.2,2.2,81,0.00,,---,0.25,VWS V14.01,2013-06-26 22:03:00,
2013-06-26 18:08:00,71.1,64.9,29.38,NNE,22,0.0,0.0,81,0.00,,---,0.25,VWS V14.01,2013-06-26 22:08:00,
2013-06-26 18:13:00,71.1,64.9,29.38,NNE,22,1.6,1.6,81,0.00,,---,0.25,VWS V14.01,2013-06-26 22:13:00,
2013-06-26 18:18:00,72.0,65.5,29.38,NNE,22,0.0,0.0,80,0.00,,---,0.25,VWS V14.01,2013-06-26 22:18:00,
2013-06-26 18:23:00,72.0,65.5,29.38,NNE,22,0.0,0.0,80,0.00,,---,0.25,VWS V14.01,2013-06-26 22:23:00,
2013-06-26 18:28:00,71.6,65.5,29.38,NNE,22,0.0,0.0,81,0.00,,---,0.25,VWS V14.01,2013-06-26 22:28:00,
2013-06-26 18:33:00,71.2,65.1,29.35,NNE,22,0.0,0.0,81,0.00,,---,0.25,VWS V14.01,2013-06-26 22:33:00,
2013-06-26 18:38:00,71.1,64.9,29.35,NNE,22,0.9,0.9,81,0.00,,---,0.25,VWS V14.01,2013-06-26 22:38:00,
2013-06-26 18:43:00,70.7,64.6,29.35,NNE,22,0.0,0.0,81,0.00,,---,0.25,VWS V14.01,2013-06-26 22:43:00,
2013-06-26 18:48:00,70.5,64.4,29.35,NNE,22,2.0,2.0,81,0.00,,---,0.25,VWS V14.01,2013-06-26 22:48:00,
2013-06-26 18:53:00,70.0,63.9,29.35,NNE,22,0.9,0.9,81,0.00,,---,0.25,VWS V14.01,2013-06-26 22:53:00,
2013-06-26 18:58:00,69.8,63.7,29.35,NNE,22,0.0,0.0,81,0.00,,---,0.25,VWS V14.01,2013-06-26 22:58:00,
2013-06-26 19:03:00,69.6,63.9,29.38,NNE,22,0.0,0.0,82,0.00,,---,0.25,VWS V14.01,2013-06-26 23:03:00,
2013-06-26 19:08:00,69.4,63.7,29.38,NNE,22,0.0,0.0,82,0.00,,---,0.25,VWS V14.01,2013-06-26 23:08:00,
2013-06-26 19:13:00,69.3,63.9,29.38,NNE,22,0.0,0.0,83,0.00,,---,0.25,VWS V14.01,2013-06-26 23:13:00,
2013-06-26 19:18:00,69.1,63.7,29.35,NNE,22,0.0,0.0,83,0.00,,---,0.25,VWS V14.01,2013-06-26 23:18:00,
2013-06-26 19:23:00,68.9,63.9,29.35,NE,45,1.6,1.6,84,0.00,,---,0.25,VWS V14.01,2013-06-26 23:23:00,
2013-06-26 19:28:00,68.7,63.7,29.35,NE,45,0.0,0.0,84,0.00,,---,0.25,VWS V14.01,2013-06-26 23:28:00,
2013-06-26 19:33:00,68.7,63.7,29.35,NE,45,0.0,0.0,84,0.00,,---,0.25,VWS V14.01,2013-06-26 23:33:00,
2013-06-26 19:38:00,68.7,63.7,29.35,NE,45,0.0,0.0,84,0.00,,---,0.25,VWS V14.01,2013-06-26 23:38:00,
2013-06-26 19:43:00,68.5,63.5,29.35,NE,45,0.0,0.0,84,0.00,,---,0.25,VWS V14.01,2013-06-26 23:43:00,
2013-06-26 19:48:00,68.5,63.9,29.32,ENE,68,0.0,1.6,85,0.00,,---,0.25,VWS V14.01,2013-06-26 23:48:00,
2013-06-26 19:53:00,68.4,63.7,29.32,NE,45,2.5,2.5,85,0.00,,---,0.25,VWS V14.01,2013-06-26 23:53:00,
2013-06-26 19:58:00,68.4,63.7,29.32,NE,45,0.9,0.9,85,0.00,,---,0.25,VWS V14.01,2013-06-26 23:58:00,
2013-06-26 20:03:00,68.2,63.8,29.32,ENE,68,2.5,2.5,86,0.00,,---,0.25,VWS V14.01,2013-06-27 00:03:00,
2013-06-26 20:08:00,68.0,63.7,29.32,NE,45,1.1,1.1,86,0.00,,---,0.25,VWS V14.01,2013-06-27 00:08:00,
2013-06-26 20:13:00,68.0,63.7,29.32,NE,45,0.9,0.9,86,0.00,,---,0.25,VWS V14.01,2013-06-27 00:13:00,
2013-06-26 20:18:00,67.8,63.8,29.35,NE,45,0.0,0.0,87,0.00,,---,0.25,VWS V14.01,2013-06-27 00:18:00,
2013-06-26 20:23:00,67.8,63.8,29.35,NE,45,0.0,0.0,87,0.00,,---,0.25,VWS V14.01,2013-06-27 00:23:00,
2013-06-26 20:28:00,67.8,63.8,29.35,NE,45,0.0,0.0,87,0.00,,---,0.25,VWS V14.01,2013-06-27 00:28:00,
2013-06-26 20:33:00,67.6,63.6,29.35,NE,45,0.0,0.0,87,0.00,,---,0.25,VWS V14.01,2013-06-27 00:33:00,
2013-06-26 20:38:00,67.6,63.6,29.35,NE,45,0.0,0.0,87,0.00,,---,0.25,VWS V14.01,2013-06-27 00:38:00,
2013-06-26 20:43:00,67.5,63.5,29.35,NE,45,0.0,0.0,87,0.00,,---,0.25,VWS V14.01,2013-06-27 00:43:00,
2013-06-26 20:48:00,67.6,63.6,29.32,NE,45,0.0,0.0,87,0.00,,---,0.25,VWS V14.01,2013-06-27 00:48:00,
2013-06-26 20:53:00,67.6,63.6,29.32,NE,45,0.0,0.0,87,0.00,,---,0.25,VWS V14.01,2013-06-27 00:53:00,
2013-06-26 20:58:00,67.6,63.6,29.32,ENE,68,0.0,0.0,87,0.00,,---,0.25,VWS V14.01,2013-06-27 00:58:00,
2013-06-26 21:03:00,67.6,63.6,29.32,ENE,68,0.0,0.0,87,0.00,,---,0.25,VWS V14.01,2013-06-27 01:03:00,
2013-06-26 21:08:00,67.6,63.6,29.32,NE,45,0.0,0.0,87,0.00,,---,0.25,VWS V14.01,2013-06-27 01:08:00,
2013-06-26 21:13:00,67.6,63.6,29.32,NE,45,0.0,0.0,87,0.00,,---,0.25,VWS V14.01,2013-06-27 01:13:00,
2013-06-26 21:18:00,67.6,63.6,29.32,NE,45,0.0,0.0,87,0.00,,---,0.25,VWS V14.01,2013-06-27 01:18:00,
2013-06-26 21:23:00,67.6,63.6,29.32,NE,45,0.0,0.0,87,0.00,,---,0.25,VWS V14.01,2013-06-27 01:23:00,
2013-06-26 21:28:00,67.5,63.5,29.32,ENE,68,0.0,0.0,87,0.00,,---,0.25,VWS V14.01,2013-06-27 01:28:00,
2013-06-26 21:33:00,67.3,63.3,29.14,ENE,68,0.0,0.0,87,0.00,,---,0.25,VWS V14.01,2013-06-27 01:33:00,
2013-06-26 21:38:00,67.1,63.1,29.14,ENE,68,0.0,0.0,87,0.00,,---,0.25,VWS V14.01,2013-06-27 01:38:00,
2013-06-26 21:43:00,67.1,63.1,29.14,East,90,2.0,2.0,87,0.00,,---,0.25,VWS V14.01,2013-06-27 01:43:00,
2013-06-26 21:48:00,66.9,62.9,29.29,ENE,68,1.3,1.3,87,0.00,,---,0.25,VWS V14.01,2013-06-27 01:48:00,
2013-06-26 21:53:00,66.9,62.9,29.29,ENE,68,0.0,0.0,87,0.00,,---,0.25,VWS V14.01,2013-06-27 01:53:00,
2013-06-26 21:58:00,66.7,62.8,29.29,ENE,68,0.0,0.0,87,0.00,,---,0.25,VWS V14.01,2013-06-27 01:58:00,
2013-06-26 22:03:00,66.7,62.8,29.29,ENE,68,0.0,0.0,87,0.00,,---,0.25,VWS V14.01,2013-06-27 02:03:00,
2013-06-26 22:08:00,66.7,62.8,29.29,ENE,68,0.0,0.0,87,0.00,,---,0.25,VWS V14.01,2013-06-27 02:08:00,
2013-06-26 22:13:00,66.9,62.9,29.29,ENE,68,0.0,0.0,87,0.00,,---,0.25,VWS V14.01,2013-06-27 02:13:00,
2013-06-26 22:18:00,66.9,63.3,29.29,ENE,68,0.0,0.0,88,0.00,,---,0.25,VWS V14.01,2013-06-27 02:18:00,
2013-06-26 22:23:00,66.7,63.1,29.29,ENE,68,0.0,0.0,88,0.00,,---,0.25,VWS V14.01,2013-06-27 02:23:00,
2013-06-26 22:28:00,66.6,62.9,29.29,ENE,68,0.0,0.0,88,0.00,,---,0.25,VWS V14.01,2013-06-27 02:28:00,
2013-06-26 22:33:00,66.4,62.7,29.26,ENE,68,0.0,0.0,88,0.00,,---,0.25,VWS V14.01,2013-06-27 02:33:00,
2013-06-26 22:38:00,66.4,62.7,29.26,ENE,68,0.0,0.0,88,0.00,,---,0.25,VWS V14.01,2013-06-27 02:38:00,
2013-06-26 22:43:00,66.2,62.5,29.26,ENE,68,0.0,0.0,88,0.00,,---,0.25,VWS V14.01,2013-06-27 02:43:00,
2013-06-26 22:48:00,66.0,62.4,29.26,ENE,68,0.0,0.0,88,0.00,,---,0.25,VWS V14.01,2013-06-27 02:48:00,
2013-06-26 22:53:00,66.0,62.4,29.26,ENE,68,0.0,0.0,88,0.00,,---,0.25,VWS V14.01,2013-06-27 02:53:00,
2013-06-26 22:58:00,65.8,62.2,29.26,ENE,68,0.0,0.0,88,0.00,,---,0.25,VWS V14.01,2013-06-27 02:58:00,
2013-06-26 23:03:00,65.8,62.2,29.23,ENE,68,1.3,2.5,88,0.00,,---,0.25,VWS V14.01,2013-06-27 03:03:00,
2013-06-26 23:08:00,65.8,62.2,29.23,ENE,68,0.0,0.0,88,0.00,,---,0.25,VWS V14.01,2013-06-27 03:08:00,
2013-06-26 23:13:00,65.8,62.2,29.23,ENE,68,0.0,0.0,88,0.00,,---,0.25,VWS V14.01,2013-06-27 03:13:00,
2013-06-26 23:18:00,65.7,62.3,29.23,ENE,68,1.6,1.6,89,0.00,,---,0.25,VWS V14.01,2013-06-27 03:18:00,
2013-06-26 23:23:00,65.7,62.3,29.23,ENE,68,0.0,0.0,89,0.00,,---,0.25,VWS V14.01,2013-06-27 03:23:00,
2013-06-26 23:28:00,65.5,62.2,29.23,ENE,68,0.0,0.0,89,0.00,,---,0.25,VWS V14.01,2013-06-27 03:28:00,
2013-06-26 23:33:00,65.5,62.2,29.23,ENE,68,0.0,0.0,89,0.00,,---,0.25,VWS V14.01,2013-06-27 03:33:00,
2013-06-26 23:38:00,65.1,61.8,29.23,ENE,68,0.0,0.0,89,0.00,,---,0.25,VWS V14.01,2013-06-27 03:38:00,
2013-06-26 23:43:00,64.9,61.3,29.23,ENE,68,0.0,0.0,88,0.00,,---,0.25,VWS V14.01,2013-06-27 03:43:00,
2013-06-26 23:48:00,64.8,61.1,29.23,ENE,68,0.0,0.0,88,0.00,,---,0.25,VWS V14.01,2013-06-27 03:48:00,
2013-06-26 23:53:00,64.8,61.1,29.23,ENE,68,0.0,0.0,88,0.00,,---,0.25,VWS V14.01,2013-06-27 03:53:00,
2013-06-26 23:58:00,64.9,61.3,29.23,ENE,68,0.0,0.0,88,0.00,,---,0.25,VWS V14.01,2013-06-27 03:58:00,